Location: Marshall
(39.8477°N, 87.1868°W)
Time: 03:03:41
(UTC+00:00)

Envisat - Pass Details

Date: 11 May 2026
Orbit: 761 x 763 km, 98.4° (Epoch: 9 June)

Event Time Altitude Azimuth Distance (km) Brightness Sun altitude
Rises 08:08:03 0° 17° (NNE) 3,231 7.4 -23.3°
Reaches altitude 10° 08:10:24 10° 21° (NNE) 2,301 6.5 -23.0°
Maximum altitude 08:15:24 59° 101° (E) 875 3.3 -22.5°
Enters shadow 08:17:19 36° 164° (SSE) 1,198 3.7 -22.2°
